This is the latest recevied weather packets stored in our database for station/object KD9DOE. If no packets are shown the sender has not sent any weather packets the latest 10 day(s).
| Time | Temp. | Humidity | Pressure | Rain* | Wind** | Luminosity | Snow |
|---|---|---|---|---|---|---|---|
| 1777824289 | 16.11° C | 47% | 1008.3 hPa | 0 mm | - | 647 W/m² | - |
| 1777823984 | 16.11° C | 48% | 1008.3 hPa | 0 mm | - | 636 W/m² | - |
| 1777823682 | 15.56° C | 51% | 1008.4 hPa | 0 mm | - | 660 W/m² | - |
| 1777823378 | 15° C | 54% | 1008.4 hPa | 0 mm | - | 634 W/m² | - |
| 1777823077 | 15° C | 55% | 1008.5 hPa | 0 mm | - | 238 W/m² | - |
| 1777822774 | 15° C | 55% | 1008.5 hPa | 0 mm | - | 523 W/m² | - |
| 1777822472 | 14.44° C | 57% | 1008.9 hPa | 0 mm | - | 659 W/m² | - |
| 1777822170 | 14.44° C | 56% | 1008.7 hPa | 0 mm | - | 649 W/m² | - |
| 1777821866 | 14.44° C | 55% | 1008.9 hPa | 0 mm | - | 700 W/m² | - |
| 1777821564 | 14.44° C | 53% | 1008.9 hPa | 0 mm | - | 704 W/m² | - |
| 1777821262 | 14.44° C | 53% | 1008.7 hPa | 0 mm | - | 639 W/m² | - |
| 1777820958 | 13.89° C | 57% | 1008.8 hPa | 0 mm | - | 565 W/m² | - |
| 1777820655 | 13.89° C | 57% | 1008.5 hPa | 0 mm | - | 555 W/m² | - |
| 1777820351 | 13.33° C | 58% | 1008.7 hPa | 0 mm | - | 306 W/m² | - |
| 1777820049 | 12.78° C | 60% | 1008.6 hPa | 0 mm | - | 243 W/m² | - |
| 1777819745 | 12.78° C | 62% | 1008.9 hPa | 0 mm | - | 186 W/m² | - |
| 1777819444 | 12.22° C | 62% | 1009.1 hPa | 0 mm | - | 187 W/m² | - |
| 1777819141 | 11.67° C | 65% | 1009 hPa | 0 mm | - | 216 W/m² | - |
| 1777818838 | 11.67° C | 67% | 1009.3 hPa | 0 mm | - | 209 W/m² | - |
| 1777818534 | 11.11° C | 69% | 1009.3 hPa | 0 mm | - | 204 W/m² | - |
| 1777818231 | 10.56° C | 71% | 1009.3 hPa | 0 mm | - | 175 W/m² | - |
| 1777817927 | 10.56° C | 70% | 1009.5 hPa | 0 mm | - | 112 W/m² | - |
| 1777817625 | 10.56° C | 70% | 1009.3 hPa | 0 mm | - | 96 W/m² | - |
| 1777817321 | 10.56° C | 69% | 1009.4 hPa | 0 mm | - | 96 W/m² | - |
| 1777817019 | 10.56° C | 69% | 1009.4 hPa | 0 mm | - | 122 W/m² | - |
* Rain latest hour (hover to see other rain measurements)
** Current wind speed in m/s (hover to see current wind gust speed)